User: anonymous   Login
Location: Newark
(0.5333°S, 166.9167°E)
Time: 11:11:05
(UTC+00:00)
Language:

BUGSAT 1 - Orbit

View from above orbital plane
View from above orbital plane
View from above satellite
View from above satellite

Ground track
Ground track

The orbit data is extracted from the following two-line orbital elements,

1 40014U 14033E   19288.08644260  .00000471  00000-0  47964-4 0  9994
2 40014  98.0264 238.3499 0032412  30.3781 329.9312 14.95325419290195
Epoch (UTC): 15 October 2019 02:04:28
Eccentricity: 0.0032412
inclination: 98.0264°
perigee height: 559 km
apogee height: 604 km
right ascension of ascending node: 238.3499°
argument of perigee: 30.3781°
revolutions per day: 14.95325419
mean anomaly at epoch: 329.9312°
orbit number at epoch: 29019

The dashed part of the orbit path shows where the satellite is in the earth's shadow,  

DLR